User: anonymous   Login
Location: McLaughlin
(0.0000°N, 0.0000°E)
Time: 07:42:30
(UTC+00:00)
Language:

EO-79 - Orbit

View from above orbital plane
View from above orbital plane
View from above satellite
View from above satellite

Ground track
Ground track

The orbit data is extracted from the following two-line orbital elements,

1 40025U 14033R   19235.76020742 +.00000090 +00000-0 +15535-4 0  9992
2 40025 097.9034 155.3339 0011844 195.8096 164.2753 14.88968312280648
Epoch (UTC): 23 August 2019 18:14:41
Eccentricity: 0.0011844
inclination: 97.9034°
perigee height: 593 km
apogee height: 609 km
right ascension of ascending node: 155.3339°
argument of perigee: 195.8096°
revolutions per day: 14.88968312
mean anomaly at epoch: 164.2753°
orbit number at epoch: 28064

The dashed part of the orbit path shows where the satellite is in the earth's shadow,  

DLR